Location: Newark
(47.4333°N, 19.2500°E)
Time: 15:23:54
(UTC+00:00)

ISS - Pass Details

Date: 08 March 2021
Orbit: 418 x 422 km, 51.6° (Epoch: 17 April)

Event Time Altitude Azimuth Distance (km) Brightness Sun altitude
Exits shadow 03:09:52 54° 5° (N) 513 -3.3 -20.9°
Maximum altitude 03:10:01 55° 17° (NNE) 510 -3.3 -20.9°
Drops below altitude 10° 03:13:19 10° 96° (E) 1,494 0.0 -20.4°
Sets 03:15:26 0° 101° (E) 2,356 1.2 -20.0°
